This is the latest recevied weather packets stored in our database for station/object VK6JI-11. If no packets are shown the sender has not sent any weather packets the latest 10 day(s).
| Time | Temp. | Humidity | Pressure | Rain* | Wind** | Luminosity | Snow |
|---|---|---|---|---|---|---|---|
| 1778205481 | 19.44° C | 57% | 1028.6 hPa | 0 mm | - | 489 W/m² | - |
| 1778205361 | 19.44° C | 57% | 1028.7 hPa | 0 mm | - | 484 W/m² | - |
| 1778205240 | 19.44° C | 57% | 1028.7 hPa | 0 mm | - | 478 W/m² | - |
| 1778205120 | 19.44° C | 57% | 1028.7 hPa | 0 mm | - | 473 W/m² | - |
| 1778204999 | 19.44° C | 57% | 1028.7 hPa | 0 mm | - | 470 W/m² | - |
| 1778204879 | 20° C | 57% | 1028.7 hPa | 0 mm | - | 466 W/m² | - |
| 1778204759 | 20° C | 57% | 1028.8 hPa | 0 mm | - | 461 W/m² | - |
| 1778204638 | 19.44° C | 57% | 1028.7 hPa | 0 mm | - | 454 W/m² | - |
| 1778204519 | 19.44° C | 58% | 1028.7 hPa | 0 mm | - | 452 W/m² | - |
| 1778204398 | 19.44° C | 58% | 1028.8 hPa | 0 mm | - | 445 W/m² | - |
| 1778204277 | 19.44° C | 57% | 1028.8 hPa | 0 mm | - | 441 W/m² | - |
| 1778204156 | 19.44° C | 58% | 1028.8 hPa | 0 mm | - | 434 W/m² | - |
| 1778204034 | 19.44° C | 59% | 1028.7 hPa | 0 mm | - | 433 W/m² | - |
| 1778203910 | 19.44° C | 59% | 1028.8 hPa | 0 mm | - | 424 W/m² | - |
| 1778203790 | 19.44° C | 59% | 1028.9 hPa | 0 mm | - | 422 W/m² | - |
| 1778203669 | 18.89° C | 59% | 1028.9 hPa | 0 mm | - | 415 W/m² | - |
| 1778203549 | 18.89° C | 60% | 1028.9 hPa | 0 mm | - | 410 W/m² | - |
| 1778203428 | 18.89° C | 60% | 1029 hPa | 0 mm | - | 403 W/m² | - |
| 1778203308 | 18.89° C | 60% | 1029 hPa | 0 mm | - | 399 W/m² | - |
| 1778203188 | 18.89° C | 61% | 1029.1 hPa | 0 mm | - | 390 W/m² | - |
| 1778203068 | 18.33° C | 61% | 1029.1 hPa | 0 mm | - | 385 W/m² | - |
| 1778202947 | 18.33° C | 61% | 1029.1 hPa | 0 mm | - | 380 W/m² | - |
| 1778202826 | 18.33° C | 61% | 1029.1 hPa | 0 mm | - | 375 W/m² | - |
| 1778202706 | 18.33° C | 62% | 1029.2 hPa | 0 mm | - | 368 W/m² | - |
| 1778202585 | 17.78° C | 62% | 1029.2 hPa | 0 mm | - | 362 W/m² | - |
* Rain latest hour (hover to see other rain measurements)
** Current wind speed in m/s (hover to see current wind gust speed)